When you browse on this site, cookies collect data to enhance your experience and personalize the content and advertising you see.
Visit our Privacy Policy to learn more. By continuing to use the site, you agree to this use of cookies and data.
  • In United Kingdom
  • List of Countries
  • For 7 days
  • Water Temperature
  • Satellite Maps
  • Weather Map
  • Weather Widgets
  • user-avatar
    Login

    Hourly Weather Jutiapa

    Today, 26 June, Wednesday

    Time Temperature Precipitation Wind Pressure Humidity
    00:00 +21°C° 1.2 mm 1 mps 673 mmHg 96%
    01:00 +20°C° 0.3 mm 1 mps 672 mmHg 96%
    02:00 +20°C° 0.3 mm 1 mps 672 mmHg 95%
    03:00 +20°C° 0.3 mm 1 mps 672 mmHg 95%
    04:00 +19°C° 0 mm 2 mps 672 mmHg 95%
    05:00 +19°C° 0 mm 2 mps 672 mmHg 96%
    06:00 +19°C° 0 mm 2 mps 672 mmHg 96%
    07:00 +20°C° 0 mm 2 mps 672 mmHg 91%
    08:00 +23°C° 0 mm 2 mps 673 mmHg 87%
    09:00 +25°C° 0 mm 2 mps 674 mmHg 82%
    10:00 +26°C° 0.3 mm 2 mps 674 mmHg 78%
    11:00 +27°C° 0.3 mm 2 mps 674 mmHg 74%
    12:00 +28°C° 0.3 mm 2 mps 674 mmHg 70%
    13:00 +28°C° 0.8 mm 2 mps 673 mmHg 72%
    14:00 +28°C° 0.8 mm 2 mps 673 mmHg 74%
    15:00 +28°C° 0.8 mm 2 mps 672 mmHg 76%
    16:00 +27°C° 1.7 mm 1 mps 672 mmHg 81%
    17:00 +25°C° 1.7 mm 1 mps 672 mmHg 86%
    18:00 +24°C° 1.7 mm 1 mps 672 mmHg 92%
    19:00 +23°C° 0.6 mm 1 mps 672 mmHg 93%
    20:00 +21°C° 0.6 mm 2 mps 672 mmHg 94%
    21:00 +20°C° 0.6 mm 2 mps 673 mmHg 95%
    22:00 +20°C° 0.5 mm 2 mps 672 mmHg 94%
    23:00 +19°C° 0.5 mm 2 mps 672 mmHg 94%

    Tomorrow, 27 June, Thursday

    Time Temperature Precipitation Wind Pressure Humidity
    00:00 +19°C° 0.5 mm 2 mps 672 mmHg 94%
    01:00 +19°C° 0 mm 2 mps 672 mmHg 94%
    02:00 +19°C° 0 mm 2 mps 672 mmHg 94%
    03:00 +18°C° 0 mm 2 mps 671 mmHg 94%
    04:00 +18°C° 0 mm 2 mps 671 mmHg 94%
    05:00 +18°C° 0 mm 2 mps 671 mmHg 94%
    06:00 +18°C° 0 mm 2 mps 672 mmHg 94%
    07:00 +20°C° 0 mm 3 mps 672 mmHg 87%
    08:00 +22°C° 0 mm 3 mps 673 mmHg 81%
    09:00 +25°C° 0 mm 3 mps 674 mmHg 74%
    10:00 +26°C° 0.1 mm 3 mps 674 mmHg 70%
    11:00 +27°C° 0.1 mm 3 mps 674 mmHg 66%
    12:00 +28°C° 0.1 mm 4 mps 674 mmHg 62%
    13:00 +28°C° 0.1 mm 4 mps 673 mmHg 63%
    14:00 +28°C° 0.1 mm 3 mps 673 mmHg 63%
    15:00 +28°C° 0.1 mm 3 mps 672 mmHg 63%
    16:00 +27°C° 0.5 mm 3 mps 672 mmHg 70%
    17:00 +25°C° 0.5 mm 3 mps 672 mmHg 77%
    18:00 +23°C° 0.5 mm 2 mps 672 mmHg 85%
    19:00 +23°C° 0.2 mm 2 mps 672 mmHg 85%
    20:00 +21°C° 0.2 mm 2 mps 672 mmHg 86%
    21:00 +20°C° 0.2 mm 2 mps 673 mmHg 86%
    22:00 +19°C° 0.1 mm 2 mps 672 mmHg 86%
    23:00 +19°C° 0.1 mm 2 mps 672 mmHg 87%

    Day after tomorrow, 28 June, Friday

    Time Temperature Precipitation Wind Pressure Humidity
    00:00 +19°C° 0.1 mm 2 mps 672 mmHg 87%
    01:00 +19°C° 0 mm 2 mps 672 mmHg 88%
    02:00 +18°C° 0 mm 2 mps 671 mmHg 88%
    03:00 +18°C° 0 mm 2 mps 671 mmHg 89%
    04:00 +18°C° 0 mm 2 mps 671 mmHg 90%
    05:00 +18°C° 0 mm 2 mps 671 mmHg 90%
    06:00 +18°C° 0 mm 2 mps 671 mmHg 90%
    07:00 +20°C° 0 mm 3 mps 672 mmHg 84%
    08:00 +22°C° 0 mm 3 mps 673 mmHg 78%
    09:00 +25°C° 0 mm 3 mps 674 mmHg 72%
    10:00 +26°C° 0 mm 4 mps 674 mmHg 67%
    11:00 +27°C° 0 mm 4 mps 674 mmHg 63%
    12:00 +28°C° 0 mm 4 mps 674 mmHg 59%
    13:00 +28°C° 0 mm 4 mps 673 mmHg 59%
    14:00 +28°C° 0 mm 4 mps 673 mmHg 60%
    15:00 +28°C° 0 mm 4 mps 672 mmHg 61%
    16:00 +26°C° 0.1 mm 4 mps 672 mmHg 67%
    17:00 +24°C° 0.1 mm 3 mps 672 mmHg 74%
    18:00 +22°C° 0.1 mm 3 mps 672 mmHg 81%
    19:00 +21°C° 0 mm 2 mps 672 mmHg 81%
    20:00 +20°C° 0 mm 2 mps 672 mmHg 81%
    21:00 +20°C° 0 mm 2 mps 673 mmHg 81%
    22:00 +19°C° 0 mm 2 mps 673 mmHg 82%
    23:00 +19°C° 0 mm 2 mps 672 mmHg 82%

    29 June, Saturday

    Time Temperature Precipitation Wind Pressure Humidity
    00:00 +19°C° 0 mm 2 mps 672 mmHg 83%
    01:00 +19°C° 0 mm 2 mps 672 mmHg 81%
    02:00 +18°C° 0 mm 2 mps 672 mmHg 79%
    03:00 +18°C° 0 mm 2 mps 672 mmHg 77%
    04:00 +18°C° 0 mm 2 mps 672 mmHg 79%
    05:00 +18°C° 0 mm 2 mps 672 mmHg 80%
    06:00 +18°C° 0 mm 2 mps 672 mmHg 82%
    07:00 +19°C° 0 mm 2 mps 672 mmHg 78%
    08:00 +21°C° 0 mm 3 mps 673 mmHg 73%
    09:00 +24°C° 0 mm 3 mps 674 mmHg 69%
    10:00 +25°C° 0 mm 3 mps 674 mmHg 66%
    11:00 +26°C° 0 mm 3 mps 674 mmHg 64%
    12:00 +27°C° 0 mm 3 mps 674 mmHg 61%
    13:00 +27°C° 0.1 mm 3 mps 673 mmHg 65%
    14:00 +26°C° 0.1 mm 3 mps 673 mmHg 68%
    15:00 +26°C° 0.1 mm 2 mps 672 mmHg 72%
    16:00 +25°C° 0.3 mm 2 mps 672 mmHg 78%
    17:00 +24°C° 0.3 mm 1 mps 672 mmHg 83%
    18:00 +23°C° 0.3 mm 1 mps 672 mmHg 89%
    19:00 +22°C° 0.1 mm 1 mps 672 mmHg 90%
    20:00 +21°C° 0.1 mm 1 mps 672 mmHg 92%
    21:00 +19°C° 0.1 mm 2 mps 673 mmHg 93%
    22:00 +18°C° 0 mm 2 mps 672 mmHg 94%
    23:00 +18°C° 0 mm 2 mps 672 mmHg 94%

    30 June, Sunday

    Time Temperature Precipitation Wind Pressure Humidity
    00:00 +18°C° 0 mm 2 mps 672 mmHg 94%
    01:00 +18°C° 0 mm 2 mps 672 mmHg 94%
    02:00 +18°C° 0 mm 2 mps 671 mmHg 94%
    03:00 +17°C° 0 mm 2 mps 671 mmHg 93%
    04:00 +17°C° 0 mm 2 mps 671 mmHg 93%
    05:00 +17°C° 0 mm 2 mps 671 mmHg 92%
    06:00 +17°C° 0 mm 2 mps 671 mmHg 92%
    07:00 +19°C° 0 mm 2 mps 672 mmHg 85%
    08:00 +21°C° 0 mm 2 mps 673 mmHg 77%
    09:00 +24°C° 0 mm 3 mps 674 mmHg 70%
    10:00 +25°C° 0 mm 3 mps 673 mmHg 68%
    11:00 +27°C° 0 mm 3 mps 673 mmHg 66%
    12:00 +28°C° 0 mm 3 mps 673 mmHg 64%
    13:00 +28°C° 0.5 mm 3 mps 673 mmHg 67%
    14:00 +28°C° 0.5 mm 2 mps 672 mmHg 71%
    15:00 +28°C° 0.5 mm 2 mps 672 mmHg 75%
    16:00 +26°C° 1.5 mm 1 mps 672 mmHg 80%
    17:00 +25°C° 1.5 mm 1 mps 671 mmHg 86%
    18:00 +24°C° 1.5 mm 1 mps 671 mmHg 92%
    19:00 +23°C° 0.6 mm 1 mps 672 mmHg 93%
    20:00 +22°C° 0.6 mm 1 mps 672 mmHg 93%
    21:00 +21°C° 0.6 mm 1 mps 673 mmHg 94%
    22:00 +21°C° 0.8 mm 1 mps 672 mmHg 95%
    23:00 +21°C° 0.8 mm 1 mps 672 mmHg 95%

    1 July, Monday

    Time Temperature Precipitation Wind Pressure Humidity
    00:00 +21°C° 0.8 mm 1 mps 672 mmHg 96%
    01:00 +21°C° 0 mm 1 mps 672 mmHg 95%
    02:00 +21°C° 0 mm 1 mps 672 mmHg 95%
    03:00 +20°C° 0 mm 1 mps 672 mmHg 94%
    04:00 +20°C° 0 mm 1 mps 672 mmHg 94%
    05:00 +20°C° 0 mm 1 mps 672 mmHg 94%
    06:00 +19°C° 0 mm 2 mps 672 mmHg 95%
    07:00 +20°C° 0 mm 2 mps 672 mmHg 93%
    08:00 +21°C° 0 mm 2 mps 673 mmHg 90%
    09:00 +23°C° 0 mm 2 mps 674 mmHg 88%
    10:00 +25°C° 0 mm 2 mps 674 mmHg 80%
    11:00 +27°C° 0 mm 2 mps 674 mmHg 73%
    12:00 +28°C° 0 mm 3 mps 674 mmHg 65%
    13:00 +28°C° 0 mm 3 mps 673 mmHg 65%
    14:00 +28°C° 0 mm 3 mps 673 mmHg 64%
    15:00 +28°C° 0 mm 2 mps 672 mmHg 63%
    16:00 +27°C° 0 mm 2 mps 672 mmHg 70%
    17:00 +26°C° 0 mm 2 mps 672 mmHg 76%
    18:00 +24°C° 0 mm 1 mps 672 mmHg 83%
    19:00 +23°C° 0 mm 1 mps 672 mmHg 83%
    20:00 +21°C° 0 mm 2 mps 672 mmHg 83%
    21:00 +20°C° 0 mm 2 mps 672 mmHg 84%
    22:00 +20°C° 0 mm 2 mps 672 mmHg 86%
    23:00 +19°C° 0 mm 2 mps 672 mmHg 88%
    Show more